Time,TemperatureF,DewpointF,PressureIn,WindDirection,WindDirectionDegrees,WindSpeedMPH,WindSpeedGustMPH,Humidity,HourlyPrecipIn,Conditions,Clouds,dailyrainin,SoftwareType,DateUTC
2013-04-21 00:09:00,57.5,44.0,30.05,SSE,148,0.0,0.0,60,0.00,,,0.00,weatherlink.com 1.10,2013-04-21 07:09:00,
2013-04-21 00:24:00,57.6,44.0,30.06,West,277,0.0,1.0,60,0.00,,,0.00,weatherlink.com 1.10,2013-04-21 07:24:00,
2013-04-21 00:39:00,57.4,43.0,30.06,West,277,0.0,1.0,60,0.00,,,0.00,weatherlink.com 1.10,2013-04-21 07:39:00,
2013-04-21 00:54:00,57.1,44.0,30.06,West,278,0.0,1.0,61,0.00,,,0.00,weatherlink.com 1.10,2013-04-21 07:54:00,
2013-04-21 01:09:00,57.2,44.0,30.06,South,180,0.0,1.0,61,0.00,,,0.00,weatherlink.com 1.10,2013-04-21 08:09:00,
2013-04-21 01:24:00,56.9,44.0,30.06,South,180,0.0,1.0,62,0.00,,,0.00,weatherlink.com 1.10,2013-04-21 08:24:00,
2013-04-21 01:39:00,56.4,43.0,30.06,SW,219,0.0,0.0,62,0.00,,,0.00,weatherlink.com 1.10,2013-04-21 08:39:00,
2013-04-21 01:54:00,56.4,44.0,30.05,SW,218,0.0,0.0,63,0.00,,,0.00,weatherlink.com 1.10,2013-04-21 08:54:00,
2013-04-21 02:09:00,56.1,44.0,30.05,SW,218,0.0,0.0,65,0.00,,,0.00,weatherlink.com 1.10,2013-04-21 09:09:00,
2013-04-21 02:24:00,55.5,44.0,30.05,SW,228,0.0,0.0,66,0.00,,,0.00,weatherlink.com 1.10,2013-04-21 09:24:00,
2013-04-21 02:39:00,55.3,44.0,30.05,WSW,253,0.0,0.0,66,0.00,,,0.00,weatherlink.com 1.10,2013-04-21 09:39:00,
2013-04-21 02:54:00,55.1,44.0,30.04,SW,235,0.0,0.0,67,0.00,,,0.00,weatherlink.com 1.10,2013-04-21 09:54:00,
2013-04-21 03:09:00,55.3,44.0,30.04,SSW,203,0.0,0.0,65,0.00,,,0.00,weatherlink.com 1.10,2013-04-21 10:09:00,
2013-04-21 03:25:00,55.1,44.0,30.04,SW,215,0.0,2.0,66,0.00,,,0.00,weatherlink.com 1.10,2013-04-21 10:25:00,
2013-04-21 03:40:00,55.6,43.0,30.04,SW,215,0.0,2.0,64,0.00,,,0.00,weatherlink.com 1.10,2013-04-21 10:40:00,
2013-04-21 03:55:00,55.9,43.0,30.04,SSE,158,1.0,2.0,62,0.00,,,0.00,weatherlink.com 1.10,2013-04-21 10:55:00,
2013-04-21 04:10:00,55.1,44.0,30.03,SSE,158,0.0,2.0,66,0.00,,,0.00,weatherlink.com 1.10,2013-04-21 11:10:00,
2013-04-21 04:25:00,55.5,43.0,30.04,SSW,201,0.0,2.0,64,0.00,,,0.00,weatherlink.com 1.10,2013-04-21 11:25:00,
2013-04-21 04:40:00,55.9,44.0,30.04,South,173,0.0,2.0,64,0.00,,,0.00,weatherlink.com 1.10,2013-04-21 11:40:00,
2013-04-21 04:55:00,56.1,43.0,30.04,WSW,250,1.0,3.0,62,0.00,,,0.00,weatherlink.com 1.10,2013-04-21 11:55:00,
2013-04-21 05:10:00,56.2,42.0,30.04,SSW,200,0.0,2.0,60,0.00,,,0.00,weatherlink.com 1.10,2013-04-21 12:10:00,
2013-04-21 05:25:00,56.1,42.0,30.04,South,184,1.0,2.0,59,0.00,,,0.00,weatherlink.com 1.10,2013-04-21 12:25:00,
2013-04-21 05:40:00,56.5,42.0,30.04,South,187,1.0,2.0,59,0.00,,,0.00,weatherlink.com 1.10,2013-04-21 12:40:00,
2013-04-21 05:55:00,56.2,41.0,30.04,SSW,203,1.0,2.0,58,0.00,,,0.00,weatherlink.com 1.10,2013-04-21 12:55:00,
2013-04-21 06:10:00,56.0,42.0,30.05,WSW,243,2.0,2.0,59,0.00,,,0.00,weatherlink.com 1.10,2013-04-21 13:10:00,
2013-04-21 06:25:00,55.7,42.0,30.05,SSE,148,0.0,1.0,60,0.00,,,0.00,weatherlink.com 1.10,2013-04-21 13:25:00,
2013-04-21 06:40:00,56.0,42.0,30.05,WSW,243,0.0,2.0,59,0.00,,,0.00,weatherlink.com 1.10,2013-04-21 13:40:00,
2013-04-21 06:55:00,56.0,42.0,30.06,West,261,0.0,0.0,60,0.00,,,0.00,weatherlink.com 1.10,2013-04-21 13:55:00,
2013-04-21 07:10:00,57.1,42.0,30.06,SE,145,0.0,0.0,58,0.00,,,0.00,weatherlink.com 1.10,2013-04-21 14:10:00,
2013-04-21 07:25:00,59.9,42.0,30.07,East,101,0.0,3.0,51,0.00,,,0.00,weatherlink.com 1.10,2013-04-21 14:25:00,
2013-04-21 07:40:00,62.4,39.0,30.07,ENE,75,0.0,3.0,43,0.00,,,0.00,weatherlink.com 1.10,2013-04-21 14:40:00,
2013-04-21 07:55:00,63.2,39.0,30.08,NNE,30,2.0,3.0,41,0.00,,,0.00,weatherlink.com 1.10,2013-04-21 14:55:00,
2013-04-21 08:10:00,63.5,40.0,30.08,East,87,1.0,4.0,43,0.00,,,0.00,weatherlink.com 1.10,2013-04-21 15:10:00,
2013-04-21 08:25:00,64.1,40.0,30.08,NNW,335,1.0,4.0,42,0.00,,,0.00,weatherlink.com 1.10,2013-04-21 15:25:00,
2013-04-21 08:40:00,66.2,40.0,30.08,NNE,15,1.0,5.0,39,0.00,,,0.00,weatherlink.com 1.10,2013-04-21 15:40:00,
2013-04-21 08:55:00,67.6,41.0,30.09,ENE,67,1.0,3.0,38,0.00,,,0.00,weatherlink.com 1.10,2013-04-21 15:55:00,
2013-04-21 09:10:00,68.9,41.0,30.09,NNW,348,0.0,5.0,36,0.00,,,0.00,weatherlink.com 1.10,2013-04-21 16:10:00,
2013-04-21 09:25:00,70.2,40.0,30.08,East,79,1.0,3.0,33,0.00,,,0.00,weatherlink.com 1.10,2013-04-21 16:25:00,
2013-04-21 09:40:00,71.4,40.0,30.08,NNE,20,0.0,4.0,32,0.00,,,0.00,weatherlink.com 1.10,2013-04-21 16:40:00,
2013-04-21 09:55:00,72.4,42.0,30.08,NE,36,1.0,4.0,34,0.00,,,0.00,weatherlink.com 1.10,2013-04-21 16:55:00,
2013-04-21 10:11:00,73.2,42.0,30.09,NE,47,1.0,4.0,33,0.00,,,0.00,weatherlink.com 1.10,2013-04-21 17:11:00,
2013-04-21 10:26:00,74.4,39.0,30.09,NW,318,5.0,8.0,28,0.00,,,0.00,weatherlink.com 1.10,2013-04-21 17:26:00,
2013-04-21 10:41:00,75.0,40.0,30.09,NNW,348,3.0,6.0,28,0.00,,,0.00,weatherlink.com 1.10,2013-04-21 17:41:00,
2013-04-21 10:56:00,76.3,35.0,30.09,SE,129,0.0,6.0,22,0.00,,,0.00,weatherlink.com 1.10,2013-04-21 17:56:00,
2013-04-21 11:11:00,77.2,30.0,30.09,East,82,3.0,6.0,18,0.00,,,0.00,weatherlink.com 1.10,2013-04-21 18:11:00,
2013-04-21 11:26:00,77.4,33.0,30.08,ENE,75,5.0,5.0,20,0.00,,,0.00,weatherlink.com 1.10,2013-04-21 18:26:00,
2013-04-21 11:41:00,77.7,32.0,30.08,NNW,329,1.0,5.0,19,0.00,,,0.00,weatherlink.com 1.10,2013-04-21 18:41:00,
2013-04-21 11:56:00,78.1,35.0,30.08,North,354,2.0,5.0,21,0.00,,,0.00,weatherlink.com 1.10,2013-04-21 18:56:00,
2013-04-21 12:11:00,79.4,32.0,30.08,NW,304,1.0,4.0,18,0.00,,,0.00,weatherlink.com 1.10,2013-04-21 19:11:00,
2013-04-21 12:26:00,80.3,32.0,30.08,NNW,335,4.0,5.0,17,0.00,,,0.00,weatherlink.com 1.10,2013-04-21 19:26:00,
2013-04-21 12:41:00,80.2,33.0,30.07,NE,47,2.0,6.0,18,0.00,,,0.00,weatherlink.com 1.10,2013-04-21 19:41:00,
2013-04-21 12:56:00,80.6,35.0,30.06,NNW,347,3.0,5.0,19,0.00,,,0.00,weatherlink.com 1.10,2013-04-21 19:56:00,
2013-04-21 13:11:00,80.8,32.0,30.06,North,11,4.0,5.0,17,0.00,,,0.00,weatherlink.com 1.10,2013-04-21 20:11:00,
2013-04-21 13:26:00,81.3,34.0,30.05,North,10,2.0,6.0,18,0.00,,,0.00,weatherlink.com 1.10,2013-04-21 20:26:00,
2013-04-21 13:41:00,82.7,34.0,30.05,North,359,1.0,6.0,17,0.00,,,0.00,weatherlink.com 1.10,2013-04-21 20:41:00,
2013-04-21 13:56:00,82.1,33.0,30.05,North,8,3.0,5.0,17,0.00,,,0.00,weatherlink.com 1.10,2013-04-21 20:56:00,
2013-04-21 14:11:00,82.9,34.0,30.05,ENE,78,2.0,4.0,17,0.00,,,0.00,weatherlink.com 1.10,2013-04-21 21:11:00,
2013-04-21 14:26:00,82.1,35.0,30.05,West,259,3.0,5.0,18,0.00,,,0.00,weatherlink.com 1.10,2013-04-21 21:26:00,
2013-04-21 14:41:00,82.8,32.0,30.04,ESE,117,1.0,3.0,16,0.00,,,0.00,weatherlink.com 1.10,2013-04-21 21:41:00,
2013-04-21 14:56:00,84.2,33.0,30.04,NE,44,1.0,4.0,16,0.00,,,0.00,weatherlink.com 1.10,2013-04-21 21:56:00,
2013-04-21 15:11:00,84.9,35.0,30.03,East,79,0.0,3.0,17,0.00,,,0.00,weatherlink.com 1.10,2013-04-21 22:11:00,
2013-04-21 15:26:00,83.7,34.0,30.03,East,84,2.0,6.0,17,0.00,,,0.00,weatherlink.com 1.10,2013-04-21 22:26:00,
2013-04-21 15:41:00,83.6,37.0,30.02,ENE,65,1.0,5.0,19,0.00,,,0.00,weatherlink.com 1.10,2013-04-21 22:41:00,
2013-04-21 15:56:00,83.5,36.0,30.02,NNW,333,1.0,5.0,18,0.00,,,0.00,weatherlink.com 1.10,2013-04-21 22:56:00,
2013-04-21 16:11:00,83.7,36.0,30.01,SE,138,1.0,4.0,18,0.00,,,0.00,weatherlink.com 1.10,2013-04-21 23:11:00,
2013-04-21 16:26:00,84.0,35.0,30.01,NW,319,0.0,4.0,17,0.00,,,0.00,weatherlink.com 1.10,2013-04-21 23:26:00,
2013-04-21 16:41:00,83.8,36.0,30.01,ESE,105,1.0,3.0,18,0.00,,,0.00,weatherlink.com 1.10,2013-04-21 23:41:00,
2013-04-21 16:56:00,83.3,36.0,30.00,ENE,62,1.0,3.0,18,0.00,,,0.00,weatherlink.com 1.10,2013-04-21 23:56:00,
2013-04-21 17:11:00,82.4,35.0,30.00,North,6,0.0,4.0,18,0.00,,,0.00,weatherlink.com 1.10,2013-04-22 00:11:00,
2013-04-21 17:26:00,81.8,37.0,30.00,West,278,0.0,2.0,20,0.00,,,0.00,weatherlink.com 1.10,2013-04-22 00:26:00,
2013-04-21 17:41:00,80.3,37.0,30.00,NNW,337,0.0,4.0,21,0.00,,,0.00,weatherlink.com 1.10,2013-04-22 00:41:00,
2013-04-21 17:56:00,79.3,37.0,30.00,NNE,30,1.0,3.0,22,0.00,,,0.00,weatherlink.com 1.10,2013-04-22 00:56:00,
2013-04-21 18:11:00,78.3,38.0,30.00,ENE,67,0.0,3.0,23,0.00,,,0.00,weatherlink.com 1.10,2013-04-22 01:11:00,
2013-04-21 18:27:00,76.8,40.0,29.99,North,351,0.0,1.0,27,0.00,,,0.00,weatherlink.com 1.10,2013-04-22 01:27:00,
2013-04-21 18:42:00,75.4,47.0,29.99,SSE,165,0.0,2.0,36,0.00,,,0.00,weatherlink.com 1.10,2013-04-22 01:42:00,
2013-04-21 18:57:00,73.6,47.0,29.99,East,89,0.0,2.0,39,0.00,,,0.00,weatherlink.com 1.10,2013-04-22 01:57:00,
2013-04-21 19:12:00,72.2,47.0,29.99,NW,321,0.0,3.0,41,0.00,,,0.00,weatherlink.com 1.10,2013-04-22 02:12:00,
2013-04-21 19:27:00,70.6,47.0,29.99,NW,321,0.0,1.0,43,0.00,,,0.00,weatherlink.com 1.10,2013-04-22 02:27:00,
2013-04-21 19:42:00,69.0,47.0,29.99,NW,321,0.0,0.0,45,0.00,,,0.00,weatherlink.com 1.10,2013-04-22 02:42:00,
2013-04-21 19:57:00,68.3,45.0,29.99,West,276,0.0,0.0,43,0.00,,,0.00,weatherlink.com 1.10,2013-04-22 02:57:00,
2013-04-21 20:12:00,67.4,45.0,30.00,West,273,0.0,0.0,44,0.00,,,0.00,weatherlink.com 1.10,2013-04-22 03:12:00,
2013-04-21 20:27:00,66.9,45.0,30.01,West,271,0.0,0.0,45,0.00,,,0.00,weatherlink.com 1.10,2013-04-22 03:27:00,
2013-04-21 20:42:00,66.8,44.0,30.01,West,271,0.0,0.0,44,0.00,,,0.00,weatherlink.com 1.10,2013-04-22 03:42:00,
2013-04-21 20:57:00,66.2,45.0,30.01,West,271,0.0,0.0,46,0.00,,,0.00,weatherlink.com 1.10,2013-04-22 03:57:00,
2013-04-21 21:12:00,66.2,45.0,30.02,West,270,0.0,1.0,46,0.00,,,0.00,weatherlink.com 1.10,2013-04-22 04:12:00,
2013-04-21 21:27:00,66.4,45.0,30.02,West,265,0.0,2.0,46,0.00,,,0.00,weatherlink.com 1.10,2013-04-22 04:27:00,
2013-04-21 21:42:00,66.1,45.0,30.03,WSW,253,0.0,1.0,47,0.00,,,0.00,weatherlink.com 1.10,2013-04-22 04:42:00,
2013-04-21 21:57:00,66.1,46.0,30.03,WSW,251,0.0,1.0,48,0.00,,,0.00,weatherlink.com 1.10,2013-04-22 04:57:00,
2013-04-21 22:12:00,65.7,45.0,30.03,WSW,253,0.0,0.0,48,0.00,,,0.00,weatherlink.com 1.10,2013-04-22 05:12:00,
2013-04-21 22:27:00,65.2,45.0,30.03,WSW,251,0.0,0.0,49,0.00,,,0.00,weatherlink.com 1.10,2013-04-22 05:27:00,
2013-04-21 22:42:00,64.7,45.0,30.03,WSW,253,0.0,0.0,50,0.00,,,0.00,weatherlink.com 1.10,2013-04-22 05:42:00,
2013-04-21 22:57:00,64.4,46.0,30.03,WSW,253,0.0,0.0,51,0.00,,,0.00,weatherlink.com 1.10,2013-04-22 05:57:00,
2013-04-21 23:12:00,64.0,46.0,30.03,WSW,253,0.0,0.0,52,0.00,,,0.00,weatherlink.com 1.10,2013-04-22 06:12:00,
2013-04-21 23:27:00,63.9,46.0,30.03,WSW,253,0.0,0.0,53,0.00,,,0.00,weatherlink.com 1.10,2013-04-22 06:27:00,
2013-04-21 23:42:00,63.6,46.0,30.03,WSW,253,0.0,0.0,54,0.00,,,0.00,weatherlink.com 1.10,2013-04-22 06:42:00,
2013-04-21 23:57:00,63.7,46.0,30.03,SW,214,0.0,0.0,53,0.00,,,0.00,weatherlink.com 1.10,2013-04-22 06:57:00,